Overview Statistics Trail Chart Weather Telemetry Raw packets
 

This is the latest recevied weather packets stored in our database for station/object KC0OOO-WX. If no packets are shown the sender has not sent any weather packets the latest 10 day(s).

<< 32 33 34 35 36 37 38 >>
Time Temp. Humidity Pressure Rain* Wind** Luminosity Snow
1777269836 4.44° C 76% 1013.5 hPa 0 mm - - -
1777269206 5° C 75% 1013.5 hPa 0 mm - - -
1777268606 5° C 73% 1013.2 hPa 0 mm - - -
1777268006 5° C 74% 1013.2 hPa 0 mm - - -
1777267406 5° C 73% 1013.2 hPa 0 mm - - -
1777266806 5° C 71% 1013.2 hPa 0 mm - - -
1777266206 5° C 72% 1013.2 hPa 0 mm - - -
1777265576 5° C 75% 1013.2 hPa 0 mm - - -
1777264976 5° C 78% 1013.2 hPa 0 mm - - -
1777264376 5° C 77% 1013.2 hPa 0 mm - - -
1777263776 4.44° C 76% 1013.2 hPa 0 mm - - -
1777263176 4.44° C 80% 1013.2 hPa 0 mm - - -
1777262576 4.44° C 83% 1012.9 hPa 0 mm - - -
1777261975 4.44° C 83% 1012.8 hPa 0 mm - - -
1777261345 4.44° C 83% 1012.5 hPa 0 mm - - -
1777260746 4.44° C 83% 1012.5 hPa 0 mm - - -
1777260146 4.44° C 84% 1012.2 hPa 0 mm - - -
1777259545 4.44° C 83% 1012.2 hPa 0 mm - - -
1777258945 3.89° C 83% 1011.9 hPa 0 mm - - -
1777258345 4.44° C 83% 1011.8 hPa 0 mm - - -
1777257745 4.44° C 82% 1011.5 hPa 0 mm - - -
1777257115 4.44° C 81% 1011.5 hPa 0 mm - - -
1777256515 4.44° C 80% 1011.5 hPa 0 mm - - -
1777255885 5.56° C 76% 1010.8 hPa 0 mm - - -
1777255255 6.11° C 69% 1010.8 hPa 0 mm - - -

* Rain latest hour (hover to see other rain measurements)
** Current wind speed in m/s (hover to see current wind gust speed)